| time (UTC) | temp F | wind direction | speed knots | gust knots | rain 1hr in | rain 24hr in | rain mn in | humidity % | barometer mb |
| 20260509022018 | 59 | 131 | 0.0 | 0.0 | 0.00 | 0.00 | 0.00 | 93 | 1017.3 |
| 20260509021515 | 59 | 130 | 0.0 | 0.0 | 0.00 | 0.00 | 0.00 | 93 | 1017.2 |
| 20260509021012 | 59 | 131 | 0.0 | 0.0 | 0.00 | 0.00 | 0.00 | 93 | 1017.3 |
| 20260509020510 | 59 | 131 | 0.0 | 0.0 | 0.00 | 0.00 | 0.00 | 93 | 1017.4 |
| 20260509020007 | 59 | 131 | 0.0 | 0.0 | 0.00 | 0.00 | 0.00 | 93 | 1017.3 |
| 20260509015506 | 59 | 131 | 0.0 | 0.0 | 0.00 | 0.00 | 0.00 | 93 | 1017.1 |
| 20260509015002 | 59 | 130 | 0.0 | 0.0 | 0.00 | 0.00 | 0.00 | 92 | 1017.1 |
| 20260509014459 | 59 | 131 | 0.0 | 0.9 | 0.00 | 0.00 | 0.00 | 92 | 1017.2 |
| 20260509013955 | 59 | 131 | 0.0 | 0.0 | 0.00 | 0.00 | 0.00 | 92 | 1017.5 |
| 20260509013452 | 60 | 130 | 0.0 | 0.0 | 0.00 | 0.00 | 0.00 | 92 | 1017.2 |
| 20260509012948 | 60 | 131 | 0.0 | 0.0 | 0.00 | 0.00 | 0.00 | 92 | 1017.1 |
| 20260509012444 | 60 | 131 | 0.0 | 0.0 | 0.00 | 0.00 | 0.00 | 91 | 1017.1 |
| 20260509011941 | 60 | 131 | 0.0 | 0.0 | 0.00 | 0.00 | 0.00 | 91 | 1017.0 |
| 20260509011439 | 60 | 131 | 0.0 | 0.0 | 0.00 | 0.00 | 0.00 | 91 | 1017.1 |
| 20260509010937 | 60 | 131 | 0.0 | 0.0 | 0.00 | 0.00 | 0.00 | 90 | 1017.1 |
| 20260509010434 | 60 | 131 | 0.0 | 0.0 | 0.00 | 0.00 | 0.00 | 90 | 1016.7 |
| 20260509005930 | 61 | 131 | 0.0 | 0.0 | 0.00 | 0.00 | 0.00 | 90 | 1016.9 |
| 20260509005429 | 61 | 131 | 0.0 | 0.0 | 0.00 | 0.00 | 0.00 | 90 | 1016.9 |
| 20260509004923 | 61 | 131 | 0.0 | 0.0 | 0.00 | 0.00 | 0.00 | 89 | 1016.8 |
| 20260509004420 | 61 | 131 | 0.0 | 0.0 | 0.00 | 0.00 | 0.00 | 89 | 1016.9 |
| 20260509003918 | 61 | 131 | 0.0 | 0.0 | 0.00 | 0.00 | 0.00 | 89 | 1016.8 |
| 20260509003415 | 61 | 131 | 0.0 | 0.0 | 0.00 | 0.00 | 0.00 | 88 | 1016.6 |
| 20260509002912 | 62 | 130 | 0.9 | 0.9 | 0.00 | 0.00 | 0.00 | 88 | 1016.4 |
| 20260509002410 | 62 | 133 | 0.0 | 0.0 | 0.00 | 0.00 | 0.00 | 87 | 1016.6 |
| 20260509001907 | 62 | 134 | 0.0 | 0.0 | 0.00 | 0.00 | 0.00 | 87 | 1016.8 |
| 20260509001403 | 62 | 134 | 0.0 | 0.0 | 0.00 | 0.00 | 0.00 | 86 | 1016.8 |
| 20260509000900 | 62 | 133 | 0.0 | 0.0 | 0.00 | 0.00 | 0.00 | 86 | 1016.6 |
| 20260509000358 | 63 | 134 | 0.0 | 0.0 | 0.00 | 0.00 | 0.00 | 85 | 1016.8 |
| 20260508235854 | 63 | 133 | 0.0 | 0.0 | 0.00 | 0.00 | 0.00 | 85 | 1016.7 |
| 20260508235351 | 64 | 134 | 0.0 | 0.0 | 0.00 | 0.00 | 0.00 | 84 | 1016.7 |
| 20260508234848 | 64 | 134 | 0.0 | 0.0 | 0.00 | 0.00 | 0.00 | 84 | 1016.8 |
| 20260508234344 | 64 | 134 | 0.0 | 0.0 | 0.00 | 0.00 | 0.00 | 83 | 1016.7 |
| 20260508233843 | 64 | 134 | 0.0 | 0.0 | 0.00 | 0.00 | 0.00 | 82 | 1016.6 |
| 20260508233342 | 64 | 134 | 0.0 | 0.0 | 0.00 | 0.00 | 0.00 | 82 | 1016.5 |
| 20260508232839 | 64 | 134 | 0.0 | 0.0 | 0.00 | 0.00 | 0.00 | 81 | 1016.3 |
| 20260508232335 | 65 | 134 | 0.0 | 0.0 | 0.00 | 0.00 | 0.00 | 81 | 1016.4 |
| 20260508231834 | 65 | 134 | 0.0 | 0.0 | 0.00 | 0.00 | 0.00 | 80 | 1016.5 |
| 20260508231329 | 65 | 134 | 0.0 | 0.0 | 0.00 | 0.00 | 0.00 | 79 | 1016.6 |
| 20260508230826 | 65 | 134 | 0.0 | 0.0 | 0.00 | 0.00 | 0.00 | 78 | 1016.7 |
| 20260508230322 | 65 | 133 | 0.0 | 0.0 | 0.00 | 0.00 | 0.00 | 77 | 1016.7 |
| 20260508225821 | 66 | 134 | 0.0 | 0.0 | 0.00 | 0.00 | 0.00 | 76 | 1016.7 |
| 20260508225317 | 66 | 134 | 0.0 | 0.0 | 0.00 | 0.00 | 0.00 | 75 | 1016.7 |
| 20260508224815 | 66 | 134 | 0.0 | 0.0 | 0.00 | 0.00 | 0.00 | 75 | 1016.6 |
| 20260508224312 | 66 | 134 | 0.0 | 0.0 | 0.00 | 0.00 | 0.00 | 74 | 1016.6 |
| 20260508223810 | 66 | 133 | 0.0 | 0.0 | 0.00 | 0.00 | 0.00 | 74 | 1016.8 |
| 20260508223307 | 67 | 127 | 0.0 | 0.0 | 0.00 | 0.00 | 0.00 | 75 | 1016.6 |
| 20260508222804 | 67 | 126 | 0.0 | 0.0 | 0.00 | 0.00 | 0.00 | 74 | 1016.5 |
| 20260508222301 | 67 | 127 | 0.0 | 0.0 | 0.00 | 0.00 | 0.00 | 74 | 1016.9 |
| 20260508221758 | 67 | 127 | 0.0 | 0.0 | 0.00 | 0.00 | 0.00 | 73 | 1016.7 |
| 20260508221253 | 67 | 126 | 0.0 | 0.0 | 0.00 | 0.00 | 0.00 | 73 | 1016.8 |
| 20260508220750 | 67 | 126 | 0.0 | 0.0 | 0.00 | 0.00 | 0.00 | 73 | 1016.6 |
| 20260508220246 | 68 | 125 | 0.0 | 0.0 | 0.00 | 0.00 | 0.00 | 72 | 1016.6 |
| 20260508215737 | 68 | 120 | 0.0 | 0.0 | 0.00 | 0.00 | 0.00 | 71 | 1016.7 |
| 20260508215234 | 69 | 120 | 0.0 | 0.0 | 0.00 | 0.00 | 0.00 | 70 | 1016.8 |
| 20260508214731 | 69 | 119 | 0.0 | 0.0 | 0.00 | 0.00 | 0.00 | 70 | 1016.6 |
| 20260508214228 | 69 | 119 | 0.0 | 0.0 | 0.00 | 0.00 | 0.00 | 68 | 1016.6 |
| 20260508213724 | 69 | 118 | 0.0 | 0.0 | 0.00 | 0.00 | 0.00 | 68 | 1016.7 |
| 20260508213221 | 69 | 119 | 0.0 | 0.0 | 0.00 | 0.00 | 0.00 | 67 | 1016.6 |
| 20260508212718 | 69 | 119 | 0.0 | 0.0 | 0.00 | 0.00 | 0.00 | 65 | 1016.8 |
| 20260508212214 | 69 | 117 | 0.0 | 0.0 | 0.00 | 0.00 | 0.00 | 64 | 1016.7 |
| 20260508211710 | 69 | 110 | 0.0 | 0.9 | 0.00 | 0.00 | 0.00 | 62 | 1016.7 |
| 20260508211206 | 69 | 129 | 0.0 | 0.0 | 0.00 | 0.00 | 0.00 | 62 | 1016.6 |
| 20260508210703 | 70 | 50 | 0.0 | 0.0 | 0.00 | 0.00 | 0.00 | 60 | 1017.0 |
| 20260508210200 | 70 | 50 | 0.0 | 0.0 | 0.00 | 0.00 | 0.00 | 59 | 1016.9 |
| 20260508205657 | 70 | 117 | 0.0 | 1.7 | 0.00 | 0.00 | 0.00 | 59 | 1016.7 |
| 20260508205154 | 71 | 249 | 0.9 | 0.9 | 0.00 | 0.00 | 0.00 | 62 | 1016.7 |
| 20260508204650 | 70 | 76 | 0.0 | 1.7 | 0.00 | 0.00 | 0.00 | 61 | 1016.7 |
| 20260508204146 | 71 | 64 | 0.9 | 0.9 | 0.00 | 0.00 | 0.00 | 60 | 1016.8 |
| 20260508203642 | 71 | 140 | 0.9 | 1.7 | 0.00 | 0.00 | 0.00 | 59 | 1016.6 |
| 20260508203138 | 71 | 338 | 0.0 | 1.7 | 0.00 | 0.00 | 0.00 | 59 | 1016.7 |
| 20260508202635 | 71 | 130 | 0.0 | 1.7 | 0.00 | 0.00 | 0.00 | 58 | 1016.9 |
| 20260508202132 | 71 | 333 | 0.9 | 1.7 | 0.00 | 0.00 | 0.00 | 58 | 1017.2 |
| 20260508201629 | 72 | 60 | 0.9 | 1.7 | 0.00 | 0.00 | 0.00 | 58 | 1017.0 |
| 20260508201125 | 73 | 316 | 0.0 | 1.7 | 0.00 | 0.00 | 0.00 | 57 | 1016.9 |
| 20260508200622 | 72 | 94 | 0.0 | 0.9 | 0.00 | 0.00 | 0.00 | 57 | 1017.1 |
| 20260508200118 | 72 | 145 | 0.0 | 0.9 | 0.00 | 0.00 | 0.00 | 56 | 1017.2 |
| 20260508195615 | 72 | 49 | 0.9 | 1.7 | 0.00 | 0.00 | 0.00 | 56 | 1017.2 |
| 20260508195112 | 71 | 289 | 0.0 | 3.5 | 0.00 | 0.00 | 0.00 | 56 | 1017.4 |
| 20260508194608 | 71 | 39 | 0.0 | 0.9 | 0.00 | 0.00 | 0.00 | 57 | 1017.4 |
| 20260508194105 | 71 | 56 | 0.9 | 3.5 | 0.00 | 0.00 | 0.00 | 58 | 1017.3 |
| 20260508193602 | 71 | 112 | 0.0 | 2.6 | 0.00 | 0.00 | 0.00 | 57 | 1017.5 |
| 20260508193059 | 72 | 96 | 0.9 | 0.9 | 0.00 | 0.00 | 0.00 | 57 | 1017.4 |
| 20260508192555 | 72 | 133 | 0.9 | 0.9 | 0.00 | 0.00 | 0.00 | 55 | 1017.7 |
| 20260508192053 | 71 | 74 | 0.0 | 1.7 | 0.00 | 0.00 | 0.00 | 55 | 1017.8 |
| 20260508191549 | 72 | 319 | 3.5 | 5.2 | 0.00 | 0.00 | 0.00 | 55 | 1017.9 |
| 20260508191046 | 73 | 107 | 0.9 | 3.5 | 0.00 | 0.00 | 0.00 | 56 | 1017.8 |
| 20260508190543 | 72 | 85 | 0.9 | 2.6 | 0.00 | 0.00 | 0.00 | 55 | 1017.9 |
| 20260508190039 | 72 | 311 | 0.0 | 0.9 | 0.00 | 0.00 | 0.00 | 55 | 1017.9 |
| 20260508185537 | 72 | 334 | 0.9 | 0.9 | 0.00 | 0.00 | 0.00 | 57 | 1018.0 |
| 20260508185034 | 72 | 91 | 0.9 | 0.9 | 0.00 | 0.00 | 0.00 | 56 | 1018.2 |
| 20260508184532 | 71 | 240 | 0.9 | 1.7 | 0.00 | 0.00 | 0.00 | 56 | 1018.3 |
| 20260508184028 | 71 | 105 | 1.7 | 2.6 | 0.00 | 0.00 | 0.00 | 57 | 1018.3 |
| 20260508183525 | 71 | 28 | 0.0 | 0.9 | 0.00 | 0.00 | 0.00 | 57 | 1018.1 |
| 20260508183021 | 71 | 68 | 0.9 | 2.6 | 0.00 | 0.00 | 0.00 | 57 | 1018.1 |
| 20260508182518 | 71 | 80 | 1.7 | 6.1 | 0.00 | 0.00 | 0.00 | 57 | 1018.4 |
| 20260508182014 | 73 | 29 | 0.9 | 2.6 | 0.00 | 0.00 | 0.00 | 59 | 1018.5 |
| 20260508181509 | 72 | 64 | 0.0 | 0.9 | 0.00 | 0.00 | 0.00 | 59 | 1018.5 |
| 20260508181007 | 71 | 81 | 0.9 | 2.6 | 0.00 | 0.00 | 0.00 | 57 | 1018.6 |
| 20260508180504 | 72 | 211 | 0.9 | 2.6 | 0.00 | 0.00 | 0.00 | 57 | 1018.9 |
| 20260508180000 | 72 | 17 | 0.9 | 3.5 | 0.00 | 0.00 | 0.00 | 57 | 1018.6 |
| 20260508175456 | 73 | 192 | 1.7 | 1.7 | 0.00 | 0.00 | 0.00 | 56 | 1018.7 |
| 20260508174954 | 72 | 310 | 1.7 | 2.6 | 0.00 | 0.00 | 0.00 | 58 | 1018.8 |
| 20260508174452 | 70 | 315 | 1.7 | 1.7 | 0.00 | 0.00 | 0.00 | 58 | 1018.7 |
| 20260508173948 | 69 | 318 | 1.7 | 2.6 | 0.00 | 0.00 | 0.00 | 58 | 1018.9 |
| 20260508173445 | 71 | 208 | 1.7 | 3.5 | 0.00 | 0.00 | 0.00 | 57 | 1019.2 |
| 20260508172941 | 71 | 190 | 1.7 | 5.2 | 0.00 | 0.00 | 0.00 | 59 | 1019.0 |
| 20260508172439 | 70 | 46 | 0.9 | 5.2 | 0.00 | 0.00 | 0.00 | 60 | 1019.1 |
| 20260508171935 | 71 | 84 | 3.5 | 3.5 | 0.00 | 0.00 | 0.00 | 59 | 1019.2 |
| 20260508171431 | 71 | 120 | 1.7 | 3.5 | 0.00 | 0.00 | 0.00 | 60 | 1019.2 |
| 20260508170928 | 70 | 97 | 0.0 | 1.7 | 0.00 | 0.00 | 0.00 | 61 | 1019.6 |
| 20260508170426 | 70 | 126 | 0.9 | 2.6 | 0.00 | 0.00 | 0.00 | 59 | 1019.2 |
| 20260508165922 | 71 | 71 | 3.5 | 5.2 | 0.00 | 0.00 | 0.00 | 61 | 1019.4 |
| 20260508165420 | 70 | 354 | 0.9 | 0.9 | 0.00 | 0.00 | 0.00 | 62 | 1019.6 |
| 20260508164915 | 70 | 54 | 1.7 | 2.6 | 0.00 | 0.00 | 0.00 | 64 | 1019.6 |
| 20260508164413 | 71 | 60 | 3.5 | 5.2 | 0.00 | 0.00 | 0.00 | 65 | 1019.6 |
| 20260508163910 | 69 | 94 | 0.9 | 1.7 | 0.00 | 0.00 | 0.00 | 65 | 1019.8 |
| 20260508163408 | 68 | 45 | 1.7 | 5.2 | 0.00 | 0.00 | 0.00 | 66 | 1019.7 |
| 20260508162903 | 69 | 0 | 1.7 | 3.5 | 0.00 | 0.00 | 0.00 | 65 | 1019.9 |
| 20260508162401 | 68 | 176 | 0.9 | 2.6 | 0.00 | 0.00 | 0.00 | 67 | 1019.9 |
| 20260508161857 | 70 | 197 | 3.5 | 5.2 | 0.00 | 0.00 | 0.00 | 65 | 1019.9 |
| 20260508161355 | 69 | 74 | 0.0 | 0.9 | 0.00 | 0.00 | 0.00 | 67 | 1020.1 |
| 20260508160852 | 68 | 60 | 1.7 | 2.6 | 0.00 | 0.00 | 0.00 | 67 | 1020.3 |
| 20260508160351 | 68 | 29 | 0.0 | 0.9 | 0.00 | 0.00 | 0.00 | 67 | 1020.1 |
| 20260508155846 | 67 | 264 | 2.6 | 3.5 | 0.00 | 0.00 | 0.00 | 67 | 1020.3 |
| 20260508155344 | 68 | 71 | 1.7 | 5.2 | 0.00 | 0.00 | 0.00 | 68 | 1020.4 |
| 20260508154841 | 68 | 81 | 1.7 | 1.7 | 0.00 | 0.00 | 0.00 | 69 | 1020.4 |
| 20260508154338 | 67 | 147 | 2.6 | 5.2 | 0.00 | 0.00 | 0.00 | 69 | 1020.4 |
| 20260508153834 | 67 | 150 | 0.9 | 1.7 | 0.00 | 0.00 | 0.00 | 71 | 1020.3 |
| 20260508153332 | 67 | 147 | 0.0 | 2.6 | 0.00 | 0.00 | 0.00 | 72 | 1020.4 |
| 20260508152828 | 67 | 149 | 0.9 | 2.6 | 0.00 | 0.00 | 0.00 | 73 | 1020.8 |
| 20260508152324 | 66 | 233 | 0.9 | 2.6 | 0.00 | 0.00 | 0.00 | 74 | 1020.8 |
| 20260508151821 | 67 | 147 | 1.7 | 1.7 | 0.00 | 0.00 | 0.00 | 76 | 1020.6 |
| 20260508151318 | 67 | 147 | 0.9 | 1.7 | 0.00 | 0.00 | 0.00 | 79 | 1020.8 |
| 20260508150814 | 66 | 225 | 0.0 | 2.6 | 0.00 | 0.00 | 0.00 | 80 | 1020.8 |
| 20260508150311 | 66 | 269 | 2.6 | 3.5 | 0.00 | 0.00 | 0.00 | 81 | 1021.0 |
| 20260508145807 | 66 | 152 | 0.9 | 1.7 | 0.00 | 0.00 | 0.00 | 83 | 1020.9 |
| 20260508145306 | 66 | 150 | 0.9 | 2.6 | 0.00 | 0.00 | 0.00 | 85 | 1020.8 |
| 20260508144801 | 65 | 150 | 0.9 | 0.9 | 0.00 | 0.00 | 0.00 | 87 | 1020.6 |
| 20260508144258 | 65 | 150 | 0.0 | 0.9 | 0.00 | 0.00 | 0.00 | 89 | 1020.8 |
| 20260508143756 | 64 | 151 | 0.0 | 1.7 | 0.00 | 0.00 | 0.00 | 89 | 1020.6 |
| 20260508143252 | 64 | 146 | 1.7 | 1.7 | 0.00 | 0.00 | 0.00 | 91 | 1020.5 |
| 20260508142749 | 63 | 148 | 1.7 | 3.5 | 0.00 | 0.00 | 0.00 | 92 | 1020.5 |
| 20260508142246 | 63 | 147 | 0.9 | 1.7 | 0.00 | 0.00 | 0.00 | 93 | 1020.4 |
| 20260508141742 | 63 | 143 | 1.7 | 3.5 | 0.00 | 0.00 | 0.00 | 93 | 1020.5 |
| 20260508141240 | 62 | 152 | 0.0 | 0.0 | 0.00 | 0.00 | 0.00 | 95 | 1020.8 |
| 20260508140737 | 61 | 148 | 0.9 | 2.6 | 0.00 | 0.00 | 0.00 | 95 | 1020.9 |
| 20260508140234 | 61 | 261 | 0.0 | 0.9 | 0.00 | 0.00 | 0.00 | 96 | 1020.9 |
| 20260508135730 | 61 | 262 | 0.0 | 0.9 | 0.00 | 0.00 | 0.00 | 96 | 1020.9 |
| 20260508135226 | 62 | 264 | 0.9 | 0.9 | 0.00 | 0.00 | 0.00 | 97 | 1021.2 |
| 20260508134721 | 61 | 262 | 0.0 | 0.9 | 0.00 | 0.00 | 0.00 | 97 | 1021.2 |
| 20260508134219 | 60 | 262 | 0.0 | 0.0 | 0.00 | 0.00 | 0.00 | 97 | 1021.2 |
| 20260508133716 | 59 | 262 | 0.9 | 1.7 | 0.00 | 0.00 | 0.00 | 97 | 1021.2 |
| 20260508133214 | 58 | 261 | 0.9 | 1.7 | 0.00 | 0.00 | 0.00 | 97 | 1021.2 |
| 20260508132711 | 58 | 262 | 0.0 | 0.0 | 0.00 | 0.00 | 0.00 | 98 | 1021.2 |
| 20260508132208 | 58 | 262 | 0.0 | 0.0 | 0.00 | 0.00 | 0.00 | 98 | 1021.1 |
| 20260508131703 | 57 | 262 | 0.0 | 0.9 | 0.00 | 0.00 | 0.00 | 98 | 1021.2 |
| 20260508131200 | 56 | 262 | 0.0 | 0.9 | 0.00 | 0.00 | 0.00 | 98 | 1021.0 |
| 20260508130657 | 56 | 262 | 0.0 | 0.0 | 0.00 | 0.00 | 0.00 | 98 | 1021.0 |
| 20260508130154 | 55 | 262 | 0.9 | 0.9 | 0.00 | 0.00 | 0.00 | 98 | 1020.9 |
| 20260508125649 | 54 | 262 | 1.7 | 1.7 | 0.00 | 0.00 | 0.00 | 98 | 1020.9 |
| 20260508125146 | 53 | 261 | 0.0 | 0.9 | 0.00 | 0.00 | 0.00 | 98 | 1020.8 |
| 20260508124645 | 53 | 261 | 0.0 | 0.0 | 0.00 | 0.00 | 0.00 | 98 | 1021.0 |
| 20260508124141 | 53 | 261 | 0.0 | 0.0 | 0.00 | 0.00 | 0.00 | 98 | 1020.8 |
| 20260508123640 | 52 | 261 | 0.0 | 0.0 | 0.00 | 0.00 | 0.00 | 98 | 1020.6 |
| 20260508123137 | 51 | 261 | 0.0 | 0.0 | 0.00 | 0.00 | 0.00 | 98 | 1020.5 |
| 20260508122633 | 51 | 261 | 0.0 | 0.9 | 0.00 | 0.00 | 0.00 | 98 | 1020.6 |
| 20260508122130 | 50 | 262 | 0.9 | 0.9 | 0.00 | 0.00 | 0.00 | 98 | 1020.3 |
| 20260508121628 | 50 | 262 | 0.9 | 0.9 | 0.00 | 0.00 | 0.00 | 98 | 1020.5 |
| 20260508121126 | 50 | 262 | 0.0 | 0.0 | 0.00 | 0.00 | 0.00 | 98 | 1020.0 |
| 20260508120623 | 49 | 262 | 0.0 | 0.9 | 0.00 | 0.00 | 0.00 | 98 | 1020.3 |
| 20260508120122 | 49 | 262 | 0.0 | 0.0 | 0.00 | 0.00 | 0.00 | 98 | 1020.0 |
| 20260508115619 | 49 | 262 | 0.0 | 0.0 | 0.00 | 0.00 | 0.00 | 97 | 1020.0 |
| 20260508115116 | 48 | 263 | 0.0 | 0.0 | 0.00 | 0.00 | 0.00 | 97 | 1019.9 |
| 20260508114613 | 48 | 262 | 0.0 | 0.0 | 0.00 | 0.00 | 0.00 | 97 | 1019.8 |
| 20260508114108 | 47 | 262 | 0.0 | 0.0 | 0.00 | 0.00 | 0.00 | 97 | 1019.7 |
| 20260508113606 | 47 | 262 | 0.0 | 0.0 | 0.00 | 0.00 | 0.00 | 97 | 1019.8 |
| 20260508113105 | 47 | 263 | 0.0 | 0.0 | 0.00 | 0.00 | 0.00 | 97 | 1019.7 |
| 20260508112600 | 47 | 262 | 0.0 | 0.0 | 0.00 | 0.00 | 0.00 | 97 | 1019.6 |
| 20260508112057 | 47 | 263 | 0.0 | 0.0 | 0.00 | 0.00 | 0.00 | 97 | 1019.6 |
| 20260508111554 | 47 | 263 | 0.0 | 0.0 | 0.00 | 0.00 | 0.00 | 97 | 1019.3 |
| 20260508111051 | 46 | 263 | 0.0 | 0.0 | 0.00 | 0.00 | 0.00 | 97 | 1019.3 |
| 20260508110549 | 46 | 263 | 0.0 | 0.0 | 0.00 | 0.00 | 0.00 | 97 | 1019.2 |
| 20260508110044 | 46 | 264 | 0.0 | 0.0 | 0.00 | 0.00 | 0.00 | 97 | 1019.1 |
| 20260508105539 | 46 | 264 | 0.0 | 0.0 | 0.00 | 0.00 | 0.00 | 97 | 1018.7 |
| 20260508105037 | 46 | 264 | 0.0 | 0.0 | 0.00 | 0.00 | 0.00 | 97 | 1018.6 |
| 20260508104535 | 46 | 264 | 0.0 | 0.0 | 0.00 | 0.00 | 0.00 | 97 | 1018.6 |
| 20260508104031 | 46 | 264 | 0.0 | 0.0 | 0.00 | 0.00 | 0.00 | 97 | 1018.5 |
| 20260508103528 | 46 | 264 | 0.0 | 0.0 | 0.00 | 0.00 | 0.00 | 97 | 1018.7 |
| 20260508103026 | 46 | 264 | 0.0 | 0.0 | 0.00 | 0.00 | 0.00 | 97 | 1018.5 |
| 20260508102523 | 46 | 264 | 0.0 | 0.0 | 0.00 | 0.00 | 0.00 | 97 | 1018.5 |
| 20260508102021 | 46 | 265 | 0.0 | 0.0 | 0.00 | 0.00 | 0.00 | 97 | 1018.3 |
| 20260508101518 | 46 | 265 | 0.0 | 0.0 | 0.00 | 0.00 | 0.00 | 97 | 1018.1 |
| 20260508101015 | 47 | 265 | 0.0 | 0.0 | 0.00 | 0.00 | 0.00 | 96 | 1018.4 |
| 20260508100513 | 47 | 265 | 0.0 | 0.0 | 0.00 | 0.00 | 0.00 | 97 | 1018.1 |
| 20260508100010 | 47 | 265 | 0.0 | 0.0 | 0.00 | 0.00 | 0.00 | 96 | 1018.0 |
| 20260508095507 | 47 | 265 | 0.0 | 0.0 | 0.00 | 0.00 | 0.00 | 96 | 1018.4 |
| 20260508095003 | 46 | 265 | 0.0 | 0.0 | 0.00 | 0.00 | 0.00 | 96 | 1018.1 |
| 20260508094501 | 46 | 265 | 0.0 | 0.9 | 0.00 | 0.00 | 0.00 | 96 | 1018.0 |
| 20260508093957 | 46 | 265 | 0.0 | 0.9 | 0.00 | 0.00 | 0.00 | 96 | 1018.2 |
| 20260508093454 | 47 | 265 | 0.0 | 0.9 | 0.00 | 0.00 | 0.00 | 96 | 1017.7 |
| 20260508092952 | 47 | 265 | 0.0 | 0.0 | 0.00 | 0.00 | 0.00 | 96 | 1017.5 |
| 20260508092449 | 47 | 265 | 0.0 | 0.0 | 0.00 | 0.00 | 0.00 | 96 | 1017.5 |
| 20260508091948 | 47 | 265 | 0.0 | 0.0 | 0.00 | 0.00 | 0.00 | 96 | 1017.6 |
| 20260508091444 | 47 | 265 | 0.0 | 0.0 | 0.00 | 0.00 | 0.00 | 96 | 1017.5 |
| 20260508090942 | 47 | 265 | 0.0 | 0.0 | 0.00 | 0.00 | 0.00 | 96 | 1017.6 |
| 20260508090440 | 47 | 267 | 0.0 | 0.0 | 0.00 | 0.00 | 0.00 | 96 | 1017.8 |
| 20260508085936 | 47 | 267 | 0.0 | 0.0 | 0.00 | 0.00 | 0.00 | 96 | 1017.4 |
| 20260508085432 | 47 | 267 | 0.0 | 0.0 | 0.00 | 0.00 | 0.00 | 96 | 1017.5 |
| 20260508084929 | 47 | 267 | 0.0 | 0.0 | 0.00 | 0.00 | 0.00 | 96 | 1017.6 |
| 20260508084425 | 47 | 267 | 0.0 | 0.0 | 0.00 | 0.00 | 0.00 | 96 | 1017.6 |
| 20260508083918 | 47 | 267 | 0.0 | 0.9 | 0.00 | 0.00 | 0.00 | 96 | 1017.2 |
| 20260508083415 | 47 | 267 | 0.0 | 0.0 | 0.00 | 0.00 | 0.00 | 96 | 1017.5 |
| 20260508082914 | 47 | 267 | 0.0 | 0.0 | 0.00 | 0.00 | 0.00 | 96 | 1017.5 |
| 20260508082412 | 47 | 267 | 0.0 | 0.0 | 0.00 | 0.00 | 0.00 | 95 | 1017.1 |
| 20260508081910 | 47 | 267 | 0.0 | 0.0 | 0.00 | 0.00 | 0.00 | 95 | 1017.2 |
| 20260508081406 | 47 | 267 | 0.0 | 0.0 | 0.00 | 0.00 | 0.00 | 95 | 1017.0 |
| 20260508080903 | 48 | 267 | 0.0 | 0.0 | 0.00 | 0.00 | 0.00 | 95 | 1017.2 |
| 20260508080401 | 48 | 267 | 0.0 | 0.0 | 0.00 | 0.00 | 0.00 | 95 | 1017.2 |
| 20260508075857 | 48 | 268 | 0.0 | 0.0 | 0.00 | 0.00 | 0.00 | 95 | 1017.3 |
| 20260508075355 | 48 | 268 | 0.0 | 0.0 | 0.00 | 0.00 | 0.00 | 95 | 1017.3 |
| 20260508074852 | 48 | 268 | 0.0 | 0.0 | 0.00 | 0.00 | 0.00 | 95 | 1017.2 |
| 20260508074348 | 48 | 268 | 0.0 | 0.0 | 0.00 | 0.00 | 0.00 | 95 | 1017.2 |
| 20260508073846 | 48 | 268 | 0.0 | 0.0 | 0.00 | 0.00 | 0.00 | 95 | 1017.1 |
| 20260508073344 | 48 | 268 | 0.0 | 0.0 | 0.00 | 0.00 | 0.00 | 95 | 1017.1 |
| 20260508072840 | 49 | 268 | 0.0 | 0.0 | 0.00 | 0.00 | 0.00 | 95 | 1017.2 |
| 20260508072336 | 49 | 268 | 0.0 | 0.0 | 0.00 | 0.00 | 0.00 | 95 | 1017.4 |
| 20260508071834 | 49 | 268 | 0.0 | 0.0 | 0.00 | 0.00 | 0.00 | 95 | 1017.4 |
| 20260508071332 | 49 | 268 | 0.0 | 0.0 | 0.00 | 0.00 | 0.00 | 95 | 1017.3 |
| 20260508070830 | 49 | 268 | 0.0 | 0.0 | 0.00 | 0.00 | 0.00 | 95 | 1017.2 |
| 20260508070328 | 49 | 268 | 0.0 | 0.0 | 0.00 | 0.00 | 0.00 | 94 | 1017.2 |
| 20260508065825 | 49 | 268 | 0.0 | 0.0 | 0.00 | 0.00 | 0.00 | 94 | 1017.3 |
| 20260508065323 | 49 | 268 | 0.0 | 0.0 | 0.00 | 0.00 | 0.00 | 94 | 1017.2 |
| 20260508064820 | 50 | 268 | 0.0 | 0.0 | 0.00 | 0.00 | 0.00 | 94 | 1017.3 |
| 20260508064318 | 50 | 268 | 0.0 | 0.0 | 0.00 | 0.00 | 0.00 | 94 | 1017.2 |
| 20260508063815 | 50 | 268 | 0.0 | 0.0 | 0.00 | 0.00 | 0.00 | 94 | 1017.4 |
| 20260508063313 | 50 | 268 | 0.0 | 0.0 | 0.00 | 0.00 | 0.00 | 94 | 1017.3 |
| 20260508062810 | 50 | 268 | 0.0 | 0.0 | 0.00 | 0.00 | 0.00 | 94 | 1017.2 |
| 20260508062308 | 50 | 268 | 0.0 | 0.0 | 0.00 | 0.00 | 0.00 | 94 | 1017.3 |
| 20260508061804 | 50 | 268 | 0.0 | 0.0 | 0.00 | 0.00 | 0.00 | 94 | 1017.2 |
| 20260508061301 | 50 | 268 | 0.0 | 0.0 | 0.00 | 0.00 | 0.00 | 93 | 1017.4 |
| 20260508060758 | 51 | 268 | 0.0 | 0.0 | 0.00 | 0.00 | 0.00 | 93 | 1017.3 |
| 20260508060256 | 51 | 268 | 0.0 | 0.0 | 0.00 | 0.00 | 0.00 | 93 | 1017.1 |
| 20260508055751 | 51 | 268 | 0.0 | 0.0 | 0.00 | 0.00 | 0.00 | 93 | 1017.4 |
| 20260508055248 | 51 | 268 | 0.0 | 0.0 | 0.00 | 0.00 | 0.00 | 93 | 1017.4 |
| 20260508054744 | 51 | 268 | 0.0 | 0.0 | 0.00 | 0.00 | 0.00 | 93 | 1017.2 |
| 20260508054243 | 51 | 268 | 0.0 | 0.0 | 0.00 | 0.00 | 0.00 | 93 | 1017.4 |
| 20260508053740 | 51 | 268 | 0.0 | 0.0 | 0.00 | 0.00 | 0.00 | 93 | 1017.4 |
| 20260508053237 | 51 | 268 | 0.0 | 0.0 | 0.00 | 0.00 | 0.00 | 92 | 1017.5 |
| 20260508052734 | 52 | 268 | 0.0 | 0.0 | 0.00 | 0.00 | 0.00 | 92 | 1017.4 |
| 20260508052231 | 52 | 268 | 0.0 | 0.0 | 0.00 | 0.00 | 0.00 | 92 | 1017.5 |
| 20260508051727 | 52 | 268 | 0.0 | 0.0 | 0.00 | 0.00 | 0.00 | 92 | 1017.4 |
| 20260508051223 | 52 | 268 | 0.0 | 0.0 | 0.00 | 0.00 | 0.00 | 92 | 1017.5 |
| 20260508050719 | 52 | 268 | 0.0 | 0.0 | 0.00 | 0.00 | 0.00 | 92 | 1017.4 |
| 20260508050218 | 52 | 268 | 0.0 | 0.0 | 0.00 | 0.00 | 0.00 | 91 | 1017.4 |
| 20260508045718 | 53 | 268 | 0.0 | 0.0 | 0.00 | 0.00 | 0.00 | 91 | 1017.2 |
| 20260508045216 | 53 | 268 | 0.0 | 0.0 | 0.00 | 0.00 | 0.00 | 91 | 1017.3 |
| 20260508044713 | 53 | 268 | 0.0 | 0.0 | 0.00 | 0.00 | 0.00 | 91 | 1017.3 |
| 20260508044210 | 53 | 268 | 0.0 | 0.0 | 0.00 | 0.00 | 0.00 | 90 | 1017.4 |
| 20260508043705 | 53 | 268 | 0.0 | 0.0 | 0.00 | 0.00 | 0.00 | 90 | 1017.2 |
| 20260508043204 | 53 | 268 | 0.0 | 0.0 | 0.00 | 0.00 | 0.00 | 90 | 1017.2 |
| 20260508042700 | 53 | 269 | 0.0 | 0.0 | 0.00 | 0.00 | 0.00 | 90 | 1017.3 |
| 20260508042157 | 54 | 269 | 0.0 | 0.0 | 0.00 | 0.00 | 0.00 | 90 | 1017.1 |
| 20260508041653 | 54 | 268 | 0.0 | 0.0 | 0.00 | 0.00 | 0.00 | 89 | 1017.2 |
| 20260508041150 | 54 | 268 | 0.0 | 0.0 | 0.00 | 0.00 | 0.00 | 89 | 1017.0 |
| 20260508040647 | 54 | 268 | 0.0 | 0.9 | 0.00 | 0.00 | 0.00 | 89 | 1017.3 |
| 20260508040144 | 55 | 268 | 0.0 | 0.0 | 0.00 | 0.00 | 0.00 | 88 | 1017.2 |
| 20260508035642 | 55 | 268 | 0.0 | 0.0 | 0.00 | 2.26 | 2.26 | 88 | 1017.0 |
| 20260508035139 | 55 | 268 | 0.0 | 0.0 | 0.00 | 2.26 | 2.26 | 88 | 1017.0 |
| 20260508034636 | 55 | 268 | 0.0 | 0.0 | 0.00 | 2.26 | 2.26 | 87 | 1016.9 |
| 20260508034132 | 55 | 268 | 0.0 | 0.0 | 0.00 | 2.26 | 2.26 | 87 | 1016.9 |
| 20260508033630 | 56 | 268 | 0.0 | 0.0 | 0.00 | 2.26 | 2.26 | 86 | 1016.7 |
| 20260508033128 | 56 | 268 | 0.0 | 0.0 | 0.00 | 2.26 | 2.26 | 86 | 1016.7 |
| 20260508032624 | 56 | 268 | 0.0 | 0.0 | 0.00 | 2.26 | 2.26 | 85 | 1016.7 |
| 20260508032122 | 57 | 268 | 0.0 | 0.0 | 0.00 | 2.26 | 2.26 | 85 | 1017.1 |
| 20260508031619 | 57 | 268 | 0.0 | 0.0 | 0.00 | 2.26 | 2.26 | 84 | 1016.8 |
| 20260508031115 | 57 | 269 | 0.0 | 0.0 | 0.00 | 2.26 | 2.26 | 83 | 1017.0 |
| 20260508030611 | 58 | 269 | 0.0 | 0.0 | 0.00 | 2.26 | 2.26 | 83 | 1016.8 |
| 20260508030110 | 58 | 269 | 0.0 | 0.0 | 0.00 | 2.26 | 2.26 | 83 | 1016.9 |
| 20260508025605 | 58 | 269 | 0.0 | 2.6 | 0.00 | 2.26 | 2.26 | 82 | 1016.8 |
| 20260508025103 | 58 | 261 | 0.0 | 0.9 | 0.00 | 2.26 | 2.26 | 82 | 1016.7 |
| 20260508024558 | 58 | 262 | 0.0 | 0.9 | 0.00 | 2.26 | 2.26 | 81 | 1016.6 |
| 20260508024056 | 59 | 250 | 0.0 | 0.0 | 0.00 | 2.26 | 2.26 | 81 | 1016.7 |
| 20260508023552 | 59 | 251 | 0.0 | 0.9 | 0.00 | 2.26 | 2.26 | 80 | 1016.4 |
| 20260508023050 | 59 | 277 | 0.0 | 0.0 | 0.00 | 2.26 | 2.26 | 80 | 1016.5 |
| 20260508022545 | 59 | 277 | 0.0 | 0.9 | 0.00 | 2.26 | 2.26 | 79 | 1016.3 |